[[{"header":{"parameterUnit":"m.s-1","parameterCategory":1,"la1":30.2991,"la2":30.254,"lo1":-89.0895,"lo2":-89.0444,"dy":0.0017,"dx":0.0017,"nx":28,"ny":28,"refTime":"2023-07-24T03:00:00:Z","depth":0,"parameterNumber":2,"parameterNumberName":"U-component_of_WINDS"},"data":[0,0,0,0,0,0,0,0,0,0,0,0,0,0,0,0,0,0,0,0,0,0,0,0,0,0,0,0,0,0,0,0,0,0,0,0,0,0,0,0,0,0,0,0,0,0,0,0,0,0,0,0,0,0,0,0,0,0,0.1533,0.1533,0,0.1506,0.1506,0.1506,0.1489,0.1489,0.1489,0.1489,0.146,0.1459,0.1459,0,0,0,0,0,0,0,0,0,0,0,0,0,0.157,0.1569,0.1533,0.1533,0.1532,0.1506,0.1506,0.1505,0.1489,0.1489,0.1489,0.1489,0.146,0.1459,0.1459,0,0,0,0,0,0,0,0,0,0,0,0,0,0.155,0.1569,0.1533,0.1521,0.152,0.1506,0.1506,0.1505,0.1489,0.1489,0.1489,0.1489,0.1461,0.146,0.1459,0.1455,0,0,0.1455,0.1455,0,0,0,0,0,0,0,0,0.1551,0.1548,0.1523,0.1522,0.152,0.1501,0.1508,0.1488,0.1489,0.1501,0.1489,0.1489,0.1474,0.1472,0.1467,0.1453,0.1452,0.1455,0.1455,0.1454,0.1454,0,0,0,0,0,0,0,0.1552,0.1549,0.1522,0.1523,0.1521,0.1517,0.1514,0.1504,0.1488,0.15,0.1498,0.1496,0.1473,0.1468,0.1466,0.1452,0.1455,0.1454,0.1454,0.1453,0.1435,0.1435,0,0,0,0,0,0,0.1556,0.155,0.1523,0.1521,0.1536,0.1516,0.1513,0.1507,0.1488,0.1485,0.1496,0.1495,0.147,0.1467,0.1465,0.146,0.1454,0.1453,0.1453,0.1435,0.1435,0.1436,0,0,0,0,0,0,0.1556,0.1553,0.1524,0.1536,0.1532,0.1516,0.1509,0.1507,0.1502,0.1485,0.1482,0.1493,0.1469,0.1466,0.1458,0.1458,0.1453,0.1452,0.1435,0.1435,0.1435,0.1449,0,0,0,0,0,0,0.1558,0.1554,0.1552,0.1536,0.1531,0.1517,0.151,0.1506,0.15,0.1499,0.1482,0.1479,0.1469,0.1459,0.1457,0.1457,0.1451,0.1435,0.1435,0.1435,0.1448,0.145,0.1451,0,0,0,0,0,0.1559,0.1556,0.1552,0.1548,0.1528,0.1517,0.1515,0.1503,0.15,0.1498,0.1488,0.148,0.1459,0.1459,0.1455,0.1455,0.1435,0.1435,0.1435,0.1448,0.1449,0.1451,0,0,0,0,0,0,0.1571,0.1553,0.1549,0.154,0.1531,0.1515,0.1512,0.1505,0.1495,0.1495,0.148,0.1477,0.147,0.1462,0.1462,0.1452,0.1446,0.1446,0.1457,0.1458,0.1459,0.1461,0.145,0,0,0,0,0,0.1573,0.1566,0.1551,0.1545,0.1541,0.1527,0.1522,0.1514,0.1503,0.1499,0.1488,0.1478,0.1469,0.1463,0.1454,0.1448,0.1444,0.1446,0.1448,0.1449,0.1448,0.1446,0.1446,0.1437,0.1437,0.1437,0,0,0.1577,0.1566,0.1562,0.1547,0.1539,0.1532,0.1524,0.1516,0.1511,0.1498,0.1489,0.1481,0.1469,0.1462,0.1458,0.1455,0.1451,0.1449,0.145,0.1449,0.1446,0.1447,0.1448,0.1437,0.1437,0.1437,0,0,0.1579,0.1571,0.1566,0.1558,0.1546,0.1537,0.1536,0.1522,0.1516,0.1508,0.1498,0.1492,0.1477,0.1469,0.1463,0.1465,0.1458,0.1463,0.1468,0.1466,0.1467,0.1467,0.1469,0.1469,0.1463,0.1463,0.1463,0,0.1585,0.1574,0.1564,0.1557,0.1551,0.1541,0.1536,0.1528,0.1514,0.151,0.1507,0.1489,0.148,0.1471,0.1472,0.1468,0.1466,0.1464,0.1468,0.1468,0.1469,0.147,0.147,0.1463,0.1463,0.1463,0.1463,0,0.1582,0.1575,0.1572,0.156,0.1554,0.1548,0.1537,0.1532,0.1526,0.1518,0.151,0.1499,0.1488,0.1486,0.1479,0.1477,0.1475,0.147,0.1464,0.147,0.1471,0.1471,0.1464,0.1464,0.1464,0.1464,0,0,0.1589,0.1573,0.1572,0.1567,0.1554,0.1548,0.1543,0.1533,0.153,0.1521,0.1516,0.1505,0.1501,0.1494,0.1486,0.1484,0.1488,0.1479,0.1479,0.1481,0.1486,0.1489,0.149,0.1484,0.1484,0.1484,0.1487,0,0.159,0.158,0.1571,0.1564,0.1558,0.1549,0.1544,0.1536,0.1529,0.1523,0.1516,0.1508,0.1503,0.1499,0.1497,0.1488,0.1489,0.1488,0.1479,0.1479,0.1481,0.149,0.1493,0.1497,0.1487,0.1487,0.1487,0,0.1589,0.1581,0.1574,0.1564,0.1561,0.1556,0.1548,0.1542,0.1533,0.1529,0.1522,0.1515,0.151,0.1506,0.1498,0.1498,0.1494,0.1489,0.1489,0.1487,0.1482,0.1488,0.1498,0.1498,0.1487,0.1487,0.1487,0,0.1595,0.1583,0.1578,0.1574,0.1561,0.1559,0.1553,0.1544,0.154,0.1533,0.153,0.1522,0.1517,0.1511,0.1502,0.15,0.1496,0.1491,0.1492,0.1492,0.149,0.149,0.1499,0.1489,0.1489,0.1489,0.1489,0,0.1596,0.1592,0.1581,0.1577,0.1573,0.1564,0.156,0.1553,0.1546,0.1542,0.1534,0.1529,0.1518,0.1513,0.1506,0.1501,0.1499,0.1495,0.1493,0.1496,0.1496,0.1492,0.1491,0.1489,0.1489,0.1489,0.1489,0,0.1602,0.1594,0.1587,0.1577,0.1574,0.1572,0.1563,0.1559,0.1553,0.1548,0.1546,0.1536,0.1529,0.152,0.1511,0.1506,0.1503,0.15,0.1506,0.1504,0.1506,0.1506,0.1512,0.1512,0.1502,0.1503,0.1503,0,0.1602,0.1599,0.1589,0.1586,0.1581,0.1576,0.1572,0.1564,0.156,0.1551,0.1548,0.1542,0.1536,0.1526,0.1518,0.1511,0.1508,0.1511,0.1507,0.151,0.1508,0.1508,0.1508,0.1511,0.1511,0.1511,0.1512,0,0.1605,0.1602,0.1596,0.159,0.1586,0.158,0.1574,0.1572,0.1562,0.1558,0.1552,0.1548,0.154,0.1533,0.1526,0.152,0.1515,0.1513,0.1513,0.1515,0.1518,0.1517,0.1508,0.1513,0.1513,0.1513,0.1512,0.1512,0.1608,0.1605,0.1598,0.1593,0.1588,0.1583,0.158,0.1574,0.1569,0.1562,0.1557,0.1552,0.1545,0.1535,0.153,0.1526,0.1523,0.1523,0.1522,0.1522,0.1523,0.152,0.1524,0.1524,0.1524,0.1524,0.1524,0,0.1609,0.1605,0.1601,0.1593,0.1589,0.1586,0.158,0.1576,0.1572,0.1566,0.1561,0.1555,0.1549,0.1542,0.1536,0.1534,0.1531,0.1533,0.1532,0.1531,0.1526,0.1526,0.1535,0.1535,0.1535,0.1535,0.1535,0.1535,0.161,0.1605,0.1602,0.1596,0.1591,0.1586,0.1583,0.1579,0.1575,0.1568,0.1564,0.156,0.1554,0.1548,0.1543,0.1541,0.1539,0.1541,0.1538,0.1533,0.1532,0.1531,0.1531,0.1541,0.1541,0.1544,0.1544,0.1544]},{"header":{"parameterUnit":"m.s-1","parameterCategory":1,"la1":30.2991,"la2":30.254,"lo1":-89.0895,"lo2":-89.0444,"dy":0.0017,"dx":0.0017,"nx":28,"ny":28,"refTime":"2023-07-24T03:00:00:Z","depth":0,"parameterNumber":3,"parameterNumberName":"V-component_of_WINDS"},"data":[0,0,0,0,0,0,0,0,0,0,0,0,0,0,0,0,0,0,0,0,0,0,0,0,0,0,0,0,0,0,0,0,0,0,0,0,0,0,0,0,0,0,0,0,0,0,0,0,0,0,0,0,0,0,0,0,0,0,-3.6929,-3.6931,0,-3.7063,-3.7065,-3.7066,-3.7039,-3.7037,-3.7035,-3.7032,-3.7168,-3.7174,-3.718,0,0,0,0,0,0,0,0,0,0,0,0,0,-3.6648,-3.6653,-3.6929,-3.6931,-3.6932,-3.7063,-3.7065,-3.7067,-3.704,-3.7037,-3.7034,-3.7031,-3.7166,-3.7173,-3.718,0,0,0,0,0,0,0,0,0,0,0,0,0,-3.6775,-3.6655,-3.6929,-3.6935,-3.6937,-3.7063,-3.7065,-3.7067,-3.7041,-3.7037,-3.7033,-3.703,-3.7164,-3.7172,-3.7181,-3.7309,0,0,-3.7208,-3.7212,0,0,0,0,0,0,0,0,-3.6768,-3.6785,-3.6932,-3.6935,-3.6937,-3.7031,-3.7016,-3.7148,-3.7041,-3.7001,-3.7032,-3.7028,-3.7125,-3.7137,-3.717,-3.7315,-3.7321,-3.7209,-3.7214,-3.7218,-3.7221,0,0,0,0,0,0,0,-3.6759,-3.6779,-3.6982,-3.6934,-3.6937,-3.693,-3.6944,-3.7041,-3.7082,-3.7004,-3.7003,-3.7019,-3.7126,-3.7162,-3.7173,-3.7323,-3.7209,-3.7217,-3.7222,-3.7225,-3.758,-3.7584,0,0,0,0,0,0,-3.6748,-3.6772,-3.6978,-3.6986,-3.6842,-3.6938,-3.6954,-3.7004,-3.7081,-3.7089,-3.7022,-3.7017,-3.7148,-3.7163,-3.7178,-3.7333,-3.7218,-3.7226,-3.7231,-3.7576,-3.7581,-3.7585,0,0,0,0,0,0,-3.6742,-3.6767,-3.6972,-3.6879,-3.6904,-3.6947,-3.7004,-3.7009,-3.7045,-3.7094,-3.7101,-3.7051,-3.7146,-3.7165,-3.7277,-3.7337,-3.723,-3.7238,-3.7571,-3.7577,-3.7583,-3.7643,0,0,0,0,0,0,-3.6734,-3.6765,-3.6814,-3.688,-3.691,-3.707,-3.7008,-3.7014,-3.706,-3.7056,-3.7124,-3.7131,-3.7145,-3.7264,-3.7285,-3.7347,-3.7245,-3.7565,-3.7574,-3.7581,-3.7636,-3.7651,-3.7663,0,0,0,0,0,-3.6724,-3.6826,-3.6817,-3.6842,-3.6972,-3.7073,-3.709,-3.7104,-3.7065,-3.7115,-3.7147,-3.7129,-3.7327,-3.7275,-3.73,-3.7365,-3.7562,-3.7571,-3.758,-3.763,-3.7648,-3.7663,0,0,0,0,0,0,-3.6766,-3.6834,-3.6826,-3.6951,-3.7007,-3.7069,-3.7132,-3.7122,-3.719,-3.7182,-3.7196,-3.7211,-3.7324,-3.7356,-3.7297,-3.7492,-3.7439,-3.7453,-3.7468,-3.7485,-3.7499,-3.7489,-3.7253,0,0,0,0,0,-3.6789,-3.6866,-3.6922,-3.7027,-3.7056,-3.7089,-3.7134,-3.714,-3.7197,-3.722,-3.726,-3.7316,-3.7391,-3.744,-3.7511,-3.764,-3.7654,-3.7697,-3.771,-3.7721,-3.7734,-3.7804,-3.7823,-3.7615,-3.7615,-3.7615,0,0,-3.6839,-3.6886,-3.6934,-3.7037,-3.7081,-3.7159,-3.7109,-3.7194,-3.7253,-3.7233,-3.7341,-3.7372,-3.7435,-3.7556,-3.7611,-3.7585,-3.7794,-3.7733,-3.7741,-3.7748,-3.7815,-3.7835,-3.7853,-3.7622,-3.762,-3.7619,0,0,-3.697,-3.7014,-3.7106,-3.7151,-3.7218,-3.7239,-3.7262,-3.7325,-3.7345,-3.7454,-3.744,-3.7509,-3.7638,-3.7684,-3.7724,-3.7872,-3.7858,-3.7895,-3.7966,-3.8034,-3.805,-3.8065,-3.8117,-3.8136,-3.7907,-3.7907,-3.7907,0,-3.7023,-3.7142,-3.7155,-3.7242,-3.7287,-3.7274,-3.7367,-3.741,-3.7496,-3.7528,-3.7498,-3.7659,-3.7701,-3.7832,-3.7868,-3.7901,-3.7926,-3.7887,-3.8047,-3.8062,-3.8075,-3.8126,-3.8145,-3.7911,-3.7911,-3.791,-3.791,0,-3.7204,-3.7286,-3.7353,-3.7438,-3.749,-3.758,-3.7606,-3.7658,-3.7659,-3.7684,-3.7794,-3.7844,-3.7925,-3.7956,-3.7958,-3.8088,-3.807,-3.8043,-3.799,-3.8099,-3.8147,-3.8166,-3.7917,-3.7915,-3.7914,-3.7913,0,0,-3.7365,-3.7455,-3.748,-3.7518,-3.759,-3.7654,-3.7743,-3.7822,-3.7867,-3.7927,-3.8001,-3.811,-3.8086,-3.8132,-3.8138,-3.8198,-3.8312,-3.8165,-3.8166,-3.819,-3.8457,-3.8477,-3.8499,-3.8303,-3.8307,-3.831,-3.8452,0,-3.7503,-3.766,-3.7674,-3.7815,-3.7891,-3.7879,-3.7956,-3.8009,-3.8034,-3.8101,-3.8129,-3.8206,-3.8168,-3.8196,-3.8255,-3.8286,-3.8366,-3.8276,-3.8372,-3.8375,-3.8357,-3.8524,-3.8545,-3.8677,-3.8471,-3.8474,-3.8476,0,-3.7684,-3.775,-3.7899,-3.796,-3.7993,-3.8062,-3.8136,-3.8201,-3.826,-3.8274,-3.8325,-3.8324,-3.8414,-3.8357,-3.8482,-3.8421,-3.8461,-3.8482,-3.8487,-3.8497,-3.8432,-3.8538,-3.8719,-3.8739,-3.8506,-3.8503,-3.8501,0,-3.7787,-3.7912,-3.8017,-3.805,-3.8125,-3.8174,-3.8207,-3.8263,-3.831,-3.8374,-3.8405,-3.8479,-3.8519,-3.8577,-3.8595,-3.8552,-3.8719,-3.8664,-3.8733,-3.8733,-3.8769,-3.8766,-3.8959,-3.8795,-3.8795,-3.8794,-3.8794,0,-3.7939,-3.803,-3.8064,-3.8129,-3.8231,-3.8246,-3.8346,-3.8377,-3.8426,-3.8496,-3.849,-3.8555,-3.8576,-3.8645,-3.866,-3.8761,-3.8779,-3.8793,-3.8796,-3.8794,-3.8792,-3.882,-3.8811,-3.8799,-3.8798,-3.8797,-3.8796,0,-3.807,-3.8097,-3.8211,-3.8272,-3.829,-3.8362,-3.8414,-3.8476,-3.85,-3.8589,-3.861,-3.8648,-3.8729,-3.8753,-3.885,-3.886,-3.8978,-3.8973,-3.8959,-3.8959,-3.9027,-3.902,-3.9244,-3.9274,-3.9091,-3.9092,-3.9094,0,-3.8166,-3.8236,-3.8305,-3.8351,-3.8387,-3.8462,-3.851,-3.8527,-3.8577,-3.865,-3.8703,-3.8783,-3.8848,-3.8978,-3.9013,-3.9088,-3.9084,-3.9157,-3.9095,-3.909,-3.9085,-3.908,-3.9087,-3.9169,-3.9171,-3.9172,-3.9174,0,-3.8332,-3.8342,-3.8411,-3.8486,-3.8543,-3.8603,-3.866,-3.8698,-3.8724,-3.878,-3.8863,-3.8914,-3.9013,-3.9093,-3.9168,-3.9201,-3.9192,-3.9193,-3.9213,-3.9212,-3.92,-3.9207,-3.8991,-3.9188,-3.9186,-3.9185,-3.9185,-3.9184,-3.8449,-3.851,-3.8568,-3.8646,-3.8691,-3.8744,-3.8805,-3.8837,-3.8907,-3.8989,-3.8995,-3.9085,-3.9141,-3.9242,-3.9279,-3.9349,-3.9328,-3.9357,-3.9364,-3.9371,-3.9376,-3.9189,-3.9363,-3.9363,-3.9362,-3.9362,-3.9362,0,-3.8614,-3.8651,-3.8722,-3.8803,-3.8864,-3.885,-3.8912,-3.8964,-3.9043,-3.9097,-3.9161,-3.9256,-3.9333,-3.9375,-3.9452,-3.95,-3.9497,-3.9519,-3.9516,-3.9524,-3.9391,-3.9366,-3.952,-3.952,-3.952,-3.952,-3.952,-3.952,-3.8708,-3.8811,-3.8828,-3.8953,-3.8989,-3.9077,-3.9114,-3.9163,-3.9206,-3.9313,-3.9377,-3.9404,-3.9453,-3.9533,-3.9603,-3.9613,-3.9641,-3.9666,-3.9673,-3.9549,-3.9533,-3.9517,-3.9494,-3.9672,-3.9672,-3.98,-3.9801,-3.9802]}]]